Time[GMT],current_u[cm/s](10m),current_v[cm/s](10m),current_u[cm/s](14m),current_v[cm/s](14m),current_u[cm/s](18m),current_v[cm/s](18m),current_u[cm/s](22m),current_v[cm/s](22m),current_u[cm/s](26m),current_v[cm/s](26m),current_u[cm/s](30m),current_v[cm/s](30m),current_u[cm/s](34m),current_v[cm/s](34m),current_u[cm/s](38m),current_v[cm/s](38m),current_u[cm/s](42m),current_v[cm/s](42m),current_u[cm/s](46m),current_v[cm/s](46m),current_u[cm/s](50m),current_v[cm/s](50m),current_u[cm/s](54m),current_v[cm/s](54m),current_u[cm/s](58m),current_v[cm/s](58m)
2005-10-22 12:00,5.09,21.43,6.41,23.37,5.62,23.56,5.65,22.01,7.92,18.81,10.01,8.28,10.48,-4.28,7.77,-5.68,2.14,1.24,2.61,3.24,5.55,3.15,4.95,4.13,1.52,6.68
2005-10-22 13:00,0.45,15.84,1.19,18.34,0.75,18.42,1.57,15.22,3.24,12.27,2.83,3.20,0.58,-5.66,-4.00,-6.35,-6.21,-0.84,-2.64,1.95,0.29,0.08,-1.44,2.50,-3.65,5.82
2005-10-22 14:00,-10.81,10.11,-10.82,11.98,-9.97,12.64,-9.21,10.36,-7.86,6.38,-11.18,-2.37,-14.28,-9.71,-18.12,-8.63,-19.90,-3.52,-16.71,-3.02,-14.53,-5.21,-14.15,-2.91,-12.65,0.22
2005-10-22 15:00,-2.77,7.11,-1.78,8.75,-1.85,8.62,-0.35,5.93,0.97,0.59,-4.23,-4.85,-10.61,-9.80,-12.46,-8.78,-13.99,-2.35,-11.26,0.10,-7.55,-2.69,-7.22,-3.84,-5.01,-1.02
2005-10-22 16:00,-8.83,8.29,-7.91,9.07,-5.97,7.76,-2.88,5.31,-5.60,5.37,-13.71,2.10,-19.31,-2.31,-21.72,1.37,-21.49,7.47,-15.74,8.08,-13.78,4.16,-12.66,-0.82,-10.55,-0.94
2005-10-22 17:00,-5.58,4.23,-4.80,4.03,-2.89,2.09,-0.89,1.30,-5.08,2.50,-12.46,-2.64,-17.87,-2.63,-19.69,1.53,-15.78,6.40,-13.77,6.66,-15.48,4.30,-14.33,1.72,-11.69,1.23
2005-10-22 18:00,-4.23,-2.67,-3.75,-2.53,-2.14,-4.15,1.75,-6.47,-0.35,-6.03,-7.16,-6.94,-14.88,-8.32,-18.65,-6.80,-18.35,-2.04,-13.03,-0.62,-6.75,-4.75,-6.62,-5.95,-6.77,-4.33
2005-10-22 19:00,-4.53,-6.71,-3.36,-6.06,-1.70,-7.87,2.26,-8.61,-0.82,-7.31,-9.76,-7.69,-15.53,-4.25,-16.66,-2.49,-17.42,-1.66,-12.89,0.67,-6.14,-1.45,-3.99,-8.95,-3.67,-8.96
2005-10-22 20:00,2.29,1.80,3.49,0.90,5.41,-0.74,4.85,-2.04,0.63,2.16,-0.02,6.96,-1.15,10.18,-4.26,13.03,-3.57,12.81,1.85,6.98,4.48,1.08,4.44,-4.24,4.65,-2.41
2005-10-22 21:00,-8.18,2.75,-8.31,3.23,-7.80,1.09,-6.00,-1.20,-7.32,0.50,-6.78,5.13,-1.45,9.78,-0.23,13.15,-0.89,12.54,-2.60,7.99,-1.33,1.39,-2.25,-6.68,-4.00,-7.81
2005-10-22 22:00,-4.21,2.33,-3.52,1.38,-3.81,0.57,-1.61,-0.56,0.38,0.84,1.12,3.34,3.44,3.59,4.07,5.75,3.87,7.56,4.50,0.98,1.88,-7.26,-2.64,-7.83,-4.57,-6.20
2005-10-22 23:00,4.76,5.53,5.02,6.43,5.93,6.17,6.22,5.53,9.28,3.91,12.40,3.56,14.12,5.92,16.74,5.11,17.66,2.26,15.66,-3.83,10.18,-5.40,5.98,-3.07,5.71,-0.34
2005-10-23 00:00,-2.49,16.66,-2.61,16.73,-2.49,15.93,-1.83,15.81,-0.24,16.06,1.37,14.44,4.80,11.57,9.45,10.20,9.67,4.75,5.23,0.98,-0.37,1.66,-4.47,6.52,-3.73,9.02
2005-10-23 01:00,-4.16,14.52,-3.26,14.25,-3.45,12.74,-1.32,12.94,0.14,12.94,2.08,10.89,7.78,5.87,12.64,-0.54,8.95,-4.72,3.25,-4.79,0.44,-2.27,-0.77,1.24,0.50,3.68
2005-10-23 02:00,-7.54,13.23,-7.04,12.23,-5.48,11.12,-4.79,11.63,-4.42,12.15,-1.47,9.46,6.36,2.14,10.43,-6.27,5.56,-8.50,1.85,-7.17,-0.05,-3.45,-0.40,1.03,-0.61,2.11
2005-10-23 03:00,-14.55,8.31,-12.88,9.00,-11.19,10.00,-9.75,8.96,-8.15,8.48,-5.28,5.35,0.54,-3.69,2.85,-11.77,-1.39,-11.84,-6.38,-10.05,-7.88,-6.63,-5.84,-2.51,-4.64,-2.68
2005-10-23 04:00,-22.21,11.42,-22.50,10.61,-22.30,9.94,-21.66,9.50,-20.12,8.48,-15.31,4.77,-11.82,-1.93,-8.85,-10.86,-12.31,-11.12,-16.01,-9.48,-18.22,-7.20,-18.02,-6.10,-10.94,-5.01
2005-10-23 05:00,-12.91,7.64,-13.14,5.91,-12.59,5.44,-12.49,5.47,-10.88,5.31,-6.00,1.71,-1.75,-5.50,1.08,-13.94,1.77,-17.07,-0.99,-15.06,-4.60,-12.97,-10.13,-9.67,-14.61,-10.01
2005-10-23 06:00,-26.18,14.76,-24.72,14.03,-15.75,12.86,-19.96,10.82,-15.69,8.30,-13.18,4.23,-10.22,-3.55,-7.45,-12.85,-10.75,-16.19,-15.44,-12.54,-18.51,-6.56,-17.80,-4.69,-18.82,4.69
2005-10-23 07:00,-16.65,5.84,-14.87,5.41,-13.73,3.97,-11.39,2.35,-8.95,-2.15,-7.52,-7.88,-5.86,-16.56,-5.65,-27.83,-8.19,-29.50,-12.09,-22.40,-15.47,-12.45,-15.39,-12.01,-7.81,-9.42
2005-10-23 08:00,-19.36,10.57,-19.78,10.56,-12.44,8.92,-13.77,6.66,-10.44,4.50,-9.94,-2.33,-9.68,-14.12,-10.71,-21.80,-13.29,-16.40,-15.59,-3.33,-13.97,3.38,-12.75,0.19,-7.03,2.04
2005-10-23 09:00,-15.94,11.34,-14.83,10.73,-7.92,8.76,-6.49,8.13,-8.44,3.30,-9.25,-6.19,-12.10,-14.39,-14.04,-12.35,-12.50,-4.31,-15.77,3.49,-11.08,5.25,-6.03,2.54,-1.00,0.96
2005-10-23 10:00,-8.73,-2.92,-5.73,-2.89,-2.54,-4.58,-0.67,-8.20,-0.47,-13.97,-1.68,-23.16,-2.00,-24.60,-6.52,-15.71,-1.89,-6.47,4.76,-4.98,6.74,-6.81,7.21,-10.62,6.44,-14.49
2005-10-23 11:00,-7.77,-1.19,-7.36,-1.90,-0.53,-1.40,-1.62,-1.61,-1.42,-6.65,-5.01,-13.71,-8.43,-16.67,-10.46,-11.42,-6.03,-4.02,0.57,-2.33,3.20,-4.28,2.64,-4.13,2.86,-1.26
2005-10-23 12:00,-0.82,-6.58,-1.20,-5.96,1.93,-3.82,3.69,-8.51,2.44,-12.51,-1.35,-15.26,-5.10,-14.88,-6.21,-11.35,0.84,-5.48,8.69,-7.81,11.89,-11.36,13.29,-10.44,10.29,-11.93
2005-10-23 13:00,-7.17,-13.81,-6.74,-14.94,-4.11,-12.52,-1.57,-13.77,-3.52,-15.68,-7.58,-15.28,-10.05,-19.01,-4.07,-13.03,1.27,-8.79,4.72,-11.75,3.84,-19.91,4.52,-15.04,-1.31,-6.31
2005-10-23 14:00,-14.79,-19.53,-15.72,-22.09,-12.59,-17.76,-12.07,-19.59,-10.53,-16.96,-14.35,-15.25,-15.08,-13.06,-10.63,-11.16,-5.06,-13.21,-7.90,-16.00,7.26,-19.14,-4.25,-9.85,3.96,5.40
2005-10-23 15:00,-22.99,-15.23,-22.18,-14.79,-18.71,-7.66,-20.50,-10.87,-19.22,-9.15,-15.42,-4.63,-14.78,-1.43,-12.40,-1.37,-8.02,-3.96,-5.19,-5.86,-10.25,-8.14,-7.34,-5.23,-13.79,11.44
2005-10-23 16:00,-22.17,-24.25,-25.13,-25.93,-21.06,-22.68,-21.53,-23.96,-18.87,-20.18,-12.13,-16.48,-8.53,-13.06,-8.24,-14.43,-5.70,-16.41,-6.77,-19.94,-12.26,-18.91,-13.21,-15.23,-7.68,-8.76
2005-10-23 17:00,-26.12,-16.65,-29.39,-17.58,-24.03,-10.53,-26.62,-14.92,-25.60,-14.10,-19.22,-10.61,-11.78,-7.54,-11.72,-7.73,-12.08,-7.21,-15.92,-11.22,-21.30,-15.68,-20.02,-4.91,-12.28,-1.44
2005-10-23 18:00,-29.95,-18.89,-30.41,-19.12,-26.50,-12.80,-27.35,-15.64,-27.91,-15.49,-22.88,-14.16,-14.53,-12.80,-12.21,-12.55,-17.74,-11.43,-22.81,-8.62,-23.28,-7.71,-22.36,-6.93,-17.74,-3.42
2005-10-23 19:00,-18.69,-16.08,-22.20,-16.56,-19.70,-10.75,-24.23,-16.73,-24.56,-18.48,-17.77,-16.75,-9.79,-14.46,-9.59,-11.90,-13.53,-10.85,-16.83,-12.42,-17.60,-9.73,-18.93,-7.61,-14.96,-8.04
2005-10-23 20:00,-20.53,-15.46,-19.75,-14.19,-17.57,-12.74,-18.28,-13.88,-22.22,-15.01,-22.17,-15.20,-14.31,-15.03,-4.66,-14.23,-4.44,-12.09,-7.30,-13.02,-8.60,-11.73,-7.36,-14.59,-4.39,-16.97
2005-10-23 21:00,-13.75,-16.63,-14.63,-17.93,-11.98,-16.65,-14.12,-15.70,-15.16,-14.96,-15.04,-14.30,-11.84,-12.03,-3.67,-11.14,2.06,-10.44,-0.92,-13.48,-1.11,-14.99,-2.03,-20.14,-0.24,-11.51
2005-10-23 22:00,-5.66,-4.22,-5.96,-4.62,-5.01,-4.66,-5.83,-4.69,-5.56,-4.19,-5.84,-2.51,-4.97,-1.53,-0.77,-1.68,9.50,-4.46,9.84,-3.84,4.24,-4.61,-0.25,-8.91,0.83,-9.44
2005-10-23 23:00,-15.64,-22.38,-5.74,-15.17,-2.74,-10.04,-2.95,-7.50,-2.60,-6.88,-2.56,-5.21,-0.42,-4.70,0.24,-3.37,6.73,-3.89,14.79,-7.31,14.87,-6.14,9.65,-4.62,9.22,-7.13
2005-10-24 00:00,-20.18,-15.98,-7.83,-9.32,-4.19,-3.91,-2.06,-1.53,-1.29,0.15,-1.28,1.19,-0.06,1.65,0.58,1.62,6.57,0.32,11.47,-3.37,8.10,-5.38,4.80,-7.67,3.65,-5.82
2005-10-24 01:00,-11.05,-9.72,-2.92,-6.14,0.89,0.15,3.67,-0.09,4.67,0.40,4.81,0.65,5.77,0.93,8.68,-1.26,11.95,-10.83,14.99,-16.72,13.06,-15.08,10.11,-9.48,8.95,-5.44
2005-10-24 02:00,-21.28,-6.31,-8.36,-3.85,-4.85,-1.60,-2.90,0.31,-1.29,0.88,-5.84,1.13,0.47,2.01,2.23,0.22,-2.60,-9.07,-2.47,-14.96,0.69,-12.91,-2.35,-8.48,0.02,-6.96
2005-10-24 03:00,-25.97,-6.30,-9.13,-4.07,-2.84,-2.79,-1.40,-1.65,-0.80,-0.85,1.13,0.43,2.12,-0.85,4.34,-3.54,1.99,-14.20,-0.49,-20.43,-2.35,-17.21,-0.69,-11.74,-1.74,-2.27
2005-10-24 04:00,-19.49,-1.32,-6.84,-3.00,0.14,0.25,-0.77,-0.95,0.98,-2.32,2.31,-2.98,3.19,-3.14,2.73,-5.88,0.47,-12.87,-6.37,-19.51,-4.34,-14.25,-0.28,-9.55,-4.26,-12.35
2005-10-24 05:00,-14.28,4.44,-7.01,1.94,-3.56,1.89,-2.29,1.11,-0.65,0.44,0.65,-0.44,1.90,-1.54,1.64,-1.72,-0.24,-6.41,-5.27,-14.62,-4.99,-8.71,0.99,-2.00,8.45,2.11
2005-10-24 06:00,-21.55,2.25,-12.62,-1.33,-7.99,-0.42,-8.02,-2.51,-8.02,-5.42,-7.70,-6.89,-7.45,-7.75,-6.68,-8.99,-8.24,-11.52,-11.63,-16.76,-12.16,-10.56,-6.14,-2.90,-1.33,1.39
2005-10-24 07:00,-13.38,-8.83,-9.56,-14.18,-7.01,-14.39,-7.19,-17.36,-7.18,-19.95,-7.18,-21.41,-8.48,-22.30,-10.02,-27.11,-10.92,-28.31,-13.79,-18.31,-5.95,-14.81,-3.08,-11.39,-3.08,-12.85
2005-10-24 08:00,-13.90,-3.05,-3.00,-7.31,-1.02,-8.41,-0.79,-11.04,-1.21,-15.01,-1.40,-15.80,-1.73,-18.28,-4.02,-21.54,-9.70,-15.89,-18.13,-0.62,-11.57,0.43,-0.37,-2.71,3.31,-3.94
2005-10-24 09:00,-0.43,0.40,2.07,-6.48,3.18,-9.28,3.06,-11.40,2.32,-12.44,1.46,-14.15,1.29,-16.48,-2.32,-15.85,-13.21,-1.08,-15.30,8.72,-6.71,6.71,0.23,6.83,0.61,4.75
2005-10-24 10:00,6.90,6.76,8.82,0.45,7.63,-3.01,7.01,-4.86,6.97,-5.80,7.08,-7.64,5.31,-6.90,-1.12,4.26,-2.93,16.01,2.83,15.17,6.28,12.20,6.20,9.58,5.82,5.83
2005-10-24 11:00,6.02,-5.76,11.84,-8.99,9.26,-13.78,7.38,-15.57,7.05,-17.33,7.23,-18.32,4.93,-16.48,2.43,-2.32,7.51,2.47,6.12,-3.55,2.18,-6.14,1.85,-7.17,5.43,-6.97
2005-10-24 12:00,4.25,-2.84,15.83,-5.14,12.99,-6.47,9.80,-6.97,8.92,-8.26,8.49,-10.36,7.31,-5.19,9.32,9.23,14.31,8.16,9.09,4.58,5.53,5.02,5.36,7.05,5.06,7.38
2005-10-24 13:00,14.03,-6.48,18.17,-8.21,15.64,-6.65,11.89,-4.81,10.02,-4.83,9.40,-5.21,8.57,-3.05,13.39,6.65,18.00,8.70,16.51,4.11,14.37,2.14,12.08,7.21,11.97,13.42
2005-10-24 14:00,-0.57,-17.23,2.92,-17.79,0.30,-13.75,-0.33,-10.08,-0.80,-8.45,-1.38,-9.34,0.42,-6.54,7.73,1.70,10.21,0.33,8.23,-4.40,7.64,-6.34,7.23,-4.90,9.85,0.12
2005-10-24 15:00,-7.59,-19.24,-3.34,-16.67,-4.32,-11.43,-2.93,-8.64,-2.48,-6.22,-3.09,-4.84,-1.38,-2.79,5.81,1.15,11.29,0.53,7.97,-0.21,7.02,-3.81,8.53,-4.73,11.47,1.00
2005-10-24 16:00,-25.62,-22.02,-15.42,-18.78,-9.07,-10.82,-9.27,-5.78,-7.74,-4.20,-5.42,-2.49,-3.49,0.56,4.45,3.36,9.52,0.54,7.87,-1.70,6.50,-6.35,4.29,-6.26,6.85,-5.01
2005-10-24 17:00,-31.24,-14.78,-22.83,-12.16,-13.93,-9.09,-9.17,-7.21,-7.27,-5.83,-3.43,-5.46,-1.29,-4.22,3.31,-1.76,9.59,-5.88,10.12,-6.25,7.19,-8.03,1.89,-6.95,4.35,-6.45
2005-10-24 18:00,-26.78,-10.38,-22.90,-7.19,-11.52,-8.82,-7.17,-10.17,-5.10,-10.51,-2.15,-11.02,0.48,-10.37,4.89,-11.60,9.66,-13.36,8.02,-10.18,5.38,-8.96,0.10,-4.34,1.53,-3.51
2005-10-24 19:00,-25.62,-7.87,-17.59,-5.77,-7.53,-9.65,-6.64,-12.41,-6.39,-14.73,-6.11,-16.42,-4.89,-16.69,0.80,-16.94,4.48,-18.90,1.63,-14.41,0.11,-12.35,-5.50,-8.03,-5.85,-5.73
2005-10-24 20:00,-21.06,0.52,-13.05,0.52,-6.70,-4.21,-6.81,-3.83,-9.36,-5.08,-10.40,-9.43,-7.97,-14.66,-2.51,-18.09,-4.35,-19.66,-8.20,-13.48,-5.50,-9.48,-4.77,-6.57,-3.75,-3.99
2005-10-24 21:00,-7.06,-2.96,-0.11,-3.98,3.02,-8.71,2.07,-7.21,-2.05,-7.35,-2.24,-15.41,0.57,-19.39,-1.12,-21.86,-7.41,-20.95,-9.31,-14.32,-3.25,-10.09,-1.32,-8.08,-3.05,-3.89
2005-10-24 22:00,-4.48,-9.40,1.55,-2.88,9.52,-3.82,10.97,-4.87,7.13,-5.65,3.83,-9.72,2.86,-14.68,-0.59,-16.09,-6.49,-11.85,-5.61,-6.91,0.96,-8.05,2.09,-6.58,-3.19,-0.50
2005-10-24 23:00,0.53,-12.02,8.56,-7.01,17.99,-9.41,19.13,-10.85,17.36,-10.11,13.71,-11.15,13.75,-12.39,9.23,-12.23,1.60,-5.58,2.38,-5.77,5.43,-8.43,5.95,-6.62,5.51,-0.71
2005-10-25 00:00,-15.00,-15.54,-2.93,-10.83,9.64,-10.76,14.67,-15.25,13.67,-14.29,12.29,-14.58,10.43,-16.05,5.61,-17.01,-0.46,-8.56,-1.90,-5.33,-0.28,-8.09,1.17,-7.36,3.08,-6.40
2005-10-25 01:00,-14.37,-11.19,-2.74,-8.59,11.89,-7.72,19.57,-10.20,19.08,-12.11,18.61,-13.39,17.91,-13.49,14.79,-11.68,9.04,-4.69,5.45,-0.52,5.11,-1.86,6.58,0.64,5.71,-0.34
2005-10-25 02:00,-18.91,-4.80,-4.89,-2.55,7.85,-5.24,13.30,-6.48,12.15,-9.00,13.21,-9.42,13.83,-9.77,8.52,-6.50,2.50,4.36,1.23,5.14,2.06,2.25,2.61,3.97,2.32,0.25
2005-10-25 03:00,-17.35,-3.00,-4.83,-3.47,5.72,-4.71,8.06,-6.32,7.36,-9.33,8.03,-9.14,9.61,-9.21,6.46,-7.30,2.78,3.71,1.49,5.32,2.66,0.14,5.19,0.76,-0.12,5.48
2005-10-25 04:00,-19.61,-8.54,-8.41,-9.49,2.36,-10.77,4.71,-12.80,4.27,-12.72,6.22,-14.44,7.64,-14.66,6.03,-10.86,4.74,1.98,5.01,5.39,3.43,0.36,5.17,-5.70,-1.32,-11.72
2005-10-25 05:00,-15.97,-9.26,-4.49,-11.17,7.54,-13.23,4.17,-12.74,3.15,-14.60,4.54,-16.90,5.95,-16.40,6.04,-14.91,6.26,-6.22,10.73,1.41,16.23,-3.98,15.62,-4.78,2.86,-18.32
2005-10-25 06:00,-25.63,-15.46,-16.81,-16.47,-6.18,-16.54,-2.29,-18.86,-2.69,-20.02,-3.15,-21.29,-0.39,-21.85,1.61,-21.59,2.38,-14.09,7.14,-8.56,12.65,-10.73,14.69,-16.39,3.34,-21.10
2005-10-25 07:00,-26.59,-2.32,-21.73,-2.59,-15.99,-3.75,-10.04,-6.00,-9.37,-8.31,-8.49,-8.47,-7.38,-9.09,-5.72,-10.17,-0.93,-5.47,3.89,1.32,10.23,-1.23,10.79,-5.33,4.38,-7.28
2005-10-25 08:00,-31.28,-12.09,-33.01,-14.04,-28.87,-15.04,-22.29,-15.13,-15.26,-15.71,-12.87,-15.34,-10.74,-17.33,-6.63,-17.51,-4.23,-13.90,-2.84,-8.62,9.28,-8.78,5.60,-10.46,5.35,-10.32
2005-10-25 09:00,-24.73,-6.26,-22.95,-5.23,-20.80,-5.45,-19.18,-8.93,-13.25,-10.04,-7.42,-10.03,-10.10,-11.95,-2.19,-10.51,3.63,-9.05,5.81,-9.36,15.01,-8.80,12.46,-16.61,4.10,-11.41
2005-10-25 10:00,-24.22,-14.23,-17.23,-14.30,-11.73,-13.87,-15.49,-13.81,-12.12,-13.98,-6.30,-15.75,1.24,-17.75,3.90,-16.15,11.54,-15.94,16.18,-18.35,16.74,-21.00,17.56,-17.33,8.95,-18.86
2005-10-25 11:00,-12.58,-4.75,-11.94,-1.55,-7.48,-1.83,-7.00,-1.70,-5.82,-2.92,-4.39,-5.73,0.49,-7.14,6.46,-9.49,14.45,-11.57,18.47,-14.36,16.55,-13.46,15.91,-13.02,-1.37,9.49
2005-10-25 12:00,-3.79,-11.07,-2.87,-13.20,-2.84,-15.48,-3.38,-17.61,-3.64,-17.79,-1.60,-21.26,-0.42,-21.03,4.00,-18.31,13.07,-11.86,17.03,-21.65,6.23,-19.54,8.62,-25.72,12.84,0.56
2005-10-25 13:00,-18.89,-13.22,-16.47,-12.94,-10.55,-8.54,-12.16,-8.38,-12.16,-9.10,-13.45,-10.41,-10.28,-8.05,-6.63,-7.00,0.49,-10.78,-0.01,-17.38,0.94,-19.60,4.12,-14.73,-33.27,-24.73
2005-10-25 14:00,-13.80,-3.75,-9.57,-3.99,-11.01,-7.32,-11.49,-6.00,-15.30,-6.15,-12.69,-6.55,-11.90,-4.56,2.74,-4.10,-3.04,-8.99,-0.35,-9.67,-3.75,-16.68,5.78,-0.21,14.02,-14.81
2005-10-25 15:00,-16.54,-15.25,-12.05,-13.13,-8.77,-9.69,-10.03,-14.01,-10.80,-15.68,-7.78,-20.02,-11.52,-22.96,-6.69,-13.67,-3.16,-12.56,2.30,-7.66,7.23,-9.26,12.39,-3.31,-3.62,-8.42
2005-10-25 16:00,-15.91,-26.51,-16.08,-23.75,-11.52,-19.32,-13.88,-16.88,-14.57,-15.93,-14.12,-12.79,-14.84,-13.20,-12.56,-11.72,-7.56,-4.46,3.39,-14.01,6.51,-12.91,-8.10,-20.01,-32.01,-27.69
2005-10-25 17:00,-10.80,-27.65,-13.00,-27.24,-12.96,-24.83,-8.38,-28.10,-10.39,-23.99,-6.82,-24.84,-4.73,-24.14,-2.38,-21.80,5.19,-13.39,1.34,-17.72,7.47,-11.90,3.31,-15.18,2.27,-43.46
2005-10-25 18:00,-4.18,-38.75,-4.89,-39.17,-3.85,-37.72,-4.64,-36.80,-4.49,-34.06,-5.66,-32.52,-5.19,-31.24,2.24,-20.16,8.96,-18.55,10.33,-18.26,20.45,-14.01,24.11,-17.33,6.08,-34.98
2005-10-25 19:00,-25.80,-41.00,-24.08,-31.77,-15.58,-30.58,-23.72,-31.56,-24.52,-28.77,-24.73,-25.50,-17.05,-25.80,-5.29,-23.99,-2.31,-27.50,1.58,-26.91,7.49,-22.51,16.63,-34.04,16.83,-50.72
2005-10-25 20:00,-8.74,-38.81,-8.60,-32.43,-9.83,-30.28,-11.22,-27.98,-3.13,-28.99,0.95,-31.98,-4.68,-33.38,-3.21,-35.98,1.22,-30.03,-2.13,-32.13,6.33,-24.61,-5.90,-40.39,-4.03,-33.82
2005-10-25 21:00,-4.23,-25.87,-1.36,-24.63,1.33,-23.86,1.80,-25.49,3.62,-26.42,-1.29,-27.42,-3.90,-29.93,-7.51,-29.31,-6.76,-30.13,0.17,-24.92,11.89,-18.96,22.37,-12.00,10.87,-31.01
2005-10-25 22:00,-7.46,-23.67,-9.90,-22.81,-7.35,-17.19,-9.33,-23.69,-11.39,-24.49,-8.49,-26.26,-11.22,-29.43,-15.85,-32.53,-11.59,-29.23,-11.97,-34.43,-0.73,-29.02,15.57,-23.83,3.07,-23.05
2005-10-25 23:00,-12.67,-20.38,-9.50,-20.93,-7.83,-23.47,-7.50,-24.62,-5.84,-26.43,-4.53,-29.18,-5.06,-32.77,-5.02,-34.00,0.34,-34.55,-2.65,-32.49,-1.94,-28.44,9.54,-24.94,19.06,-20.02
2005-10-26 00:00,-13.84,-24.67,-8.05,-26.34,-7.90,-24.32,-5.94,-23.55,-7.60,-23.92,-7.00,-18.76,-1.34,-16.72,-2.85,-19.44,-9.77,-27.98,-3.71,-28.42,0.23,-30.21,-0.52,-29.38,16.71,8.12
2005-10-26 01:00,-14.48,-29.33,-13.78,-27.77,-13.16,-28.12,-14.41,-31.39,-17.69,-35.55,-19.89,-40.55,-19.30,-46.62,-21.22,-46.45,-18.76,-42.31,-14.63,-37.49,-11.18,-33.58,-3.65,-27.89,2.20,-28.71
2005-10-26 02:00,-25.51,-57.98,-24.84,-57.06,-26.44,-55.44,-25.46,-52.34,-23.74,-49.25,-21.66,-42.73,-20.59,-40.65,-17.49,-34.77,-15.58,-30.58,-14.15,-29.02,-9.40,-20.17,-6.20,-22.27,4.92,-28.76
2005-10-26 03:00,-15.95,-43.06,-17.05,-43.59,-17.42,-41.93,-17.83,-40.48,-17.13,-37.47,-14.98,-30.10,-13.59,-26.99,-11.65,-23.21,-9.13,-16.77,-6.98,-12.30,-3.56,-7.89,5.62,-1.82,18.64,-0.06
2005-10-26 04:00,-30.42,-65.52,-26.89,-65.86,-20.64,-61.89,-16.73,-56.29,-15.16,-50.54,-14.82,-43.37,-15.74,-41.24,-14.73,-40.43,-13.50,-35.29,-10.77,-32.11,-5.72,-27.23,9.49,-24.02,-0.27,-30.25
2005-10-26 05:00,-49.95,-64.15,-45.12,-57.78,-39.05,-49.58,-33.51,-45.29,-28.04,-40.81,-23.69,-35.30,-18.91,-33.09,-12.88,-29.81,-6.82,-25.57,-2.01,-22.01,3.03,-18.17,15.26,-17.68,8.17,-35.73
2005-10-26 06:00,-50.48,-62.33,-40.73,-52.04,-27.30,-38.31,-18.18,-32.37,-14.98,-32.28,-11.61,-30.27,-9.44,-29.86,-7.09,-27.52,-4.81,-25.31,-1.71,-23.79,2.12,-21.55,12.59,-22.50,5.02,-21.86
2005-10-26 07:00,-48.61,-71.36,-47.90,-59.72,-38.28,-44.99,-28.30,-36.62,-22.62,-34.68,-17.52,-31.76,-13.45,-31.11,-13.74,-29.01,-15.83,-25.34,-17.45,-25.50,-16.68,-27.46,-7.78,-28.03,5.69,-17.30
2005-10-26 08:00,-57.30,-48.68,-50.38,-36.19,-41.51,-30.11,-33.00,-26.42,-27.05,-24.30,-22.04,-23.28,-19.52,-22.97,-16.61,-24.42,-14.06,-23.90,-14.01,-25.86,-12.34,-27.36,-8.24,-27.12,-3.68,-30.70
2005-10-26 09:00,-59.42,-47.83,-49.06,-34.98,-39.34,-31.88,-32.62,-30.26,-28.25,-29.53,-24.31,-26.95,-20.85,-27.41,-18.39,-29.10,-16.50,-28.45,-14.70,-29.29,-12.16,-29.81,-7.07,-28.66,-4.37,-29.76
2005-10-26 10:00,-48.93,-43.05,-36.57,-33.89,-25.71,-32.24,-18.87,-32.87,-14.93,-33.93,-11.60,-31.73,-8.92,-32.73,-9.12,-34.24,-9.66,-29.09,-11.98,-29.34,-13.09,-28.72,-11.44,-28.66,-5.09,-22.89
2005-10-26 11:00,-43.24,-40.38,-28.75,-29.26,-15.02,-26.36,-7.46,-28.04,-4.28,-30.77,-3.78,-30.00,-3.69,-29.56,-5.41,-31.20,-5.48,-29.87,-3.60,-28.08,-5.56,-28.12,-6.98,-25.72,-2.94,-9.69
2005-10-26 12:00,-28.27,-29.85,-14.66,-20.33,-4.43,-21.56,2.04,-24.17,3.47,-26.99,4.00,-28.81,3.24,-28.72,4.31,-25.92,4.75,-23.09,4.33,-20.92,4.30,-19.36,4.66,-16.97,5.76,-14.27
2005-10-26 13:00,-23.90,-42.54,-16.59,-28.48,-4.63,-24.84,1.81,-26.63,4.41,-28.80,4.16,-28.66,5.23,-26.59,6.52,-26.74,8.60,-25.62,9.21,-26.69,7.11,-26.26,7.30,-25.47,9.04,-18.11
2005-10-26 14:00,-21.08,-35.69,-18.91,-24.04,-9.27,-15.56,-4.68,-16.32,-0.90,-16.80,1.75,-17.70,4.12,-17.65,4.91,-17.11,5.40,-16.66,8.08,-16.20,7.79,-15.56,5.56,-14.32,9.01,-14.37
2005-10-26 15:00,-2.75,-43.75,-4.77,-42.15,-6.46,-35.14,-3.63,-26.53,1.60,-24.09,4.84,-23.06,5.03,-20.09,4.14,-17.33,3.32,-14.13,3.82,-13.68,3.91,-12.92,2.47,-10.42,0.67,-9.59
2005-10-26 16:00,6.01,-36.56,3.18,-35.39,-0.27,-33.16,-2.69,-26.16,4.00,-18.31,10.59,-18.81,11.75,-17.02,11.14,-13.45,10.87,-9.99,10.46,-7.09,10.77,-5.65,11.32,-3.93,5.00,-2.21
2005-10-26 17:00,-6.48,-36.91,-9.21,-37.18,-12.66,-35.67,-15.19,-33.38,-12.08,-24.27,-5.61,-19.61,-0.89,-18.67,-1.04,-15.59,-1.56,-11.27,0.37,-9.26,2.95,-9.56,1.67,-8.36,-2.53,-8.94
2005-10-26 18:00,-13.35,-35.45,-16.13,-34.07,-17.62,-33.24,-18.98,-32.49,-18.74,-27.53,-10.71,-20.34,-3.20,-16.42,-2.31,-14.81,-0.81,-10.95,0.37,-9.26,2.36,-9.31,0.87,-9.22,-5.69,-7.35
2005-10-26 19:00,-10.82,-29.01,-10.37,-28.05,-11.50,-28.47,-10.76,-27.43,-10.57,-25.92,-7.67,-19.68,1.80,-12.80,5.12,-9.14,5.10,-6.55,8.66,-6.98,7.30,-6.23,0.66,-5.95,-3.35,-5.74
2005-10-26 20:00,-12.94,-39.39,-14.12,-38.90,-14.26,-39.15,-14.35,-38.13,-13.98,-34.70,-11.47,-28.57,-6.76,-22.85,-3.08,-20.44,-0.37,-19.04,0.03,-19.34,-3.02,-19.59,-7.28,-18.52,-7.72,-12.62
2005-10-26 21:00,-7.97,-28.81,-8.53,-28.66,-8.44,-27.18,-9.30,-25.97,-8.74,-22.48,-7.86,-15.78,-6.03,-11.61,-2.37,-8.79,3.21,-10.11,2.62,-11.32,3.37,-8.50,5.24,-7.76,1.48,-7.69
2005-10-26 22:00,-1.63,-30.95,-2.90,-31.62,-3.94,-31.61,-6.06,-30.76,-6.97,-26.13,-6.45,-18.49,-5.59,-16.06,0.43,-17.46,6.36,-16.38,9.73,-16.14,11.95,-15.19,14.86,-12.28,10.34,-9.21
2005-10-26 23:00,-2.48,-23.28,-2.42,-22.75,-0.06,-20.10,3.08,-16.18,5.72,-8.35,3.84,-3.58,6.57,-4.77,9.51,-1.23,13.61,-2.13,12.99,-7.93,13.84,-3.63,14.86,-2.50,11.43,0.05
2005-10-27 00:00,1.58,-26.91,0.82,-26.08,0.89,-23.05,1.43,-15.51,3.94,-7.92,2.60,-2.90,3.89,-5.96,6.15,-8.02,10.66,-4.54,11.60,-10.72,14.20,-9.97,15.42,-7.33,13.93,-5.06
2005-10-27 01:00,2.42,-26.56,1.87,-26.82,-0.47,-25.21,-0.14,-21.26,1.96,-14.11,2.63,-8.09,3.18,-8.55,6.78,-10.95,11.57,-14.58,13.79,-16.54,18.04,-16.47,19.02,-11.92,13.76,-7.71
2005-10-27 02:00,3.52,-16.99,3.74,-16.30,4.47,-15.57,3.83,-15.55,6.15,-10.93,10.32,-5.15,11.18,-1.99,13.55,-3.71,16.59,-9.60,21.34,-11.67,25.22,-9.93,22.41,-5.95,15.20,-4.38
2005-10-27 03:00,4.83,-9.95,3.42,-9.74,2.28,-10.48,1.55,-9.75,5.39,-5.01,11.05,3.17,12.87,3.38,18.23,-2.26,21.31,-6.48,25.21,-7.75,27.30,-9.23,23.38,-6.09,15.61,-3.64
2005-10-27 04:00,6.50,-5.63,5.56,-6.31,4.65,-7.51,3.29,-8.21,4.67,-4.69,12.49,-2.56,18.82,-3.97,22.95,-6.74,25.42,-9.56,26.69,-10.35,24.72,-11.84,16.16,-7.75,10.21,-4.04
2005-10-27 05:00,9.35,1.12,7.79,0.78,6.98,-0.39,6.31,-0.58,8.10,0.76,14.72,1.62,19.70,-3.40,22.59,-6.94,24.10,-7.86,26.42,-6.88,27.89,-7.29,22.66,-4.63,14.52,-0.93
2005-10-27 06:00,-3.52,-9.12,-2.96,-9.27,-2.53,-9.67,-3.12,-10.15,-3.93,-10.59,-0.64,-9.03,9.06,-8.74,16.08,-14.01,21.09,-15.49,24.55,-14.50,25.99,-16.27,22.58,-15.27,12.54,-11.07
2005-10-27 07:00,-25.45,-7.40,-22.01,-4.86,-16.64,-3.63,-8.80,-5.96,-3.30,-8.44,-0.90,-8.48,5.13,-9.56,11.76,-15.25,15.33,-16.83,19.07,-16.07,18.64,-17.85,11.83,-14.40,2.29,-11.62
2005-10-27 08:00,-20.10,0.79,-22.06,1.48,-19.38,1.93,-11.93,2.41,-3.95,-1.45,4.24,-6.07,8.95,-8.36,12.76,-11.84,17.47,-16.32,20.43,-16.82,21.82,-17.67,17.35,-13.33,7.00,-5.90
2005-10-27 09:00,-26.12,5.83,-26.79,7.09,-23.84,9.50,-18.50,8.64,-13.65,5.87,-8.68,1.26,-3.43,-2.54,2.19,-7.28,9.01,-12.92,15.25,-15.08,19.88,-14.90,16.91,-11.07,3.37,-4.13
2005-10-27 10:00,-32.39,-3.88,-31.65,-0.65,-27.87,0.33,-23.93,-1.45,-18.74,-5.37,-13.40,-10.60,-9.51,-13.65,-4.40,-19.47,-0.54,-26.06,4.89,-27.21,7.20,-27.27,6.99,-24.73,-2.16,-14.97
2005-10-27 11:00,-15.23,0.52,-14.99,3.30,-11.46,5.87,-9.70,3.36,-8.67,0.12,-4.42,-4.18,3.90,-12.51,8.29,-18.01,10.12,-21.86,13.77,-22.27,14.51,-21.22,13.96,-16.39,5.38,-9.69
2005-10-27 12:00,-11.84,-1.52,-10.37,1.71,-7.91,1.48,-6.84,-2.27,-6.12,-5.50,-2.49,-8.72,2.25,-14.02,2.46,-17.29,2.35,-19.82,5.54,-20.78,2.78,-20.22,1.46,-19.97,-0.71,-14.56
2005-10-27 13:00,3.80,2.34,4.97,5.17,5.79,5.20,4.79,3.25,4.60,0.28,7.16,-2.84,9.17,-8.40,10.46,-12.19,10.17,-14.77,9.93,-15.77,5.37,-15.10,6.04,-12.00,9.55,-4.65
2005-10-27 14:00,3.64,2.19,4.91,4.63,2.65,3.46,3.05,1.71,4.51,-1.93,6.39,-5.97,6.84,-8.96,5.01,-9.49,2.37,-11.18,1.88,-11.63,2.37,-11.18,6.05,-5.13,8.13,-2.24
2005-10-27 15:00,10.64,2.43,11.36,4.30,10.04,3.81,9.67,1.84,10.10,-0.75,10.41,-2.94,9.21,-5.27,10.17,-4.99,8.01,-4.36,3.41,-3.18,3.69,0.54,8.80,0.86,7.66,0.12
2005-10-27 16:00,11.19,1.96,9.12,5.21,8.07,3.77,7.84,2.77,8.02,1.05,4.29,-0.44,4.23,-1.70,6.57,0.32,7.68,1.89,6.58,1.37,11.38,-3.40,12.21,2.04,7.36,3.36
2005-10-27 17:00,15.82,4.33,14.98,6.90,13.36,6.02,11.09,6.30,7.69,5.85,7.60,6.13,14.10,6.33,14.83,2.69,16.59,0.91,20.13,-3.80,22.08,-4.80,17.50,0.65,9.35,5.49
2005-10-27 18:00,12.39,4.70,10.79,8.82,9.65,8.80,5.84,8.65,2.36,7.75,6.89,4.99,8.43,2.52,10.75,0.59,11.62,3.02,12.60,0.70,15.00,-1.52,10.63,1.38,-4.89,2.55
2005-10-27 19:00,9.42,2.70,9.16,3.98,6.37,5.36,0.50,6.59,-0.53,6.92,3.55,3.20,3.62,1.87,3.05,2.43,3.03,4.30,4.79,1.06,8.41,-2.48,9.47,-1.45,-1.19,-0.55
2005-10-27 20:00,3.75,2.53,2.22,3.86,0.27,4.13,-2.59,5.40,-3.36,6.63,0.38,5.21,-0.44,0.81,-4.75,-3.75,-26.64,-12.32,-32.82,-13.26,-0.13,-3.89,11.06,-3.38,2.68,-3.18
2005-10-27 21:00,0.04,6.04,-0.12,8.39,0.73,7.60,-1.15,8.72,-2.01,7.02,2.13,2.38,1.80,-0.84,-4.97,-2.99,-21.99,-4.95,-18.91,-0.43,0.92,-2.13,11.57,-3.34,4.22,-2.74
2005-10-27 22:00,-1.86,3.21,-1.32,5.34,0.98,5.28,2.16,1.55,1.50,1.68,4.03,-2.80,3.40,-6.41,1.06,-5.52,-1.49,-5.32,-0.83,-3.26,8.15,-7.75,14.30,-12.86,6.68,-9.53
2005-10-27 23:00,-5.52,1.85,-5.06,5.31,-2.52,6.98,-0.02,4.78,-0.01,1.14,1.13,-3.21,2.26,-8.61,0.72,-8.32,-2.07,-5.48,-2.91,-2.91,3.10,-6.08,11.37,-13.90,7.90,-13.03